[[{"header":{"parameterUnit":"m.s-1","parameterCategory":1,"la1":30.2991,"la2":30.254,"lo1":-89.0895,"lo2":-89.0444,"dy":0.0017,"dx":0.0017,"nx":28,"ny":28,"refTime":"2024-05-23T03:00:00:Z","depth":0,"parameterNumber":2,"parameterNumberName":"U-component_of_WINDS"},"data":[0,0,0,0,0,0,0,0,0,0,0,0,0,0,0,0,0,0,0,0,0,0,0,0,0,0,0,0,0,0,0,0,0,0,0,0,0,0,0,0,0,0,0,0,0,0,0,0,0,0,0,0,0,0,0,0,0,0,-0.8161,-0.8162,0,-0.8212,-0.8212,-0.8213,-0.8246,-0.8247,-0.8247,-0.8247,-0.83,-0.8301,-0.8303,0,0,0,0,0,0,0,0,0,0,0,0,0,-0.8097,-0.8098,-0.8161,-0.8162,-0.8162,-0.8211,-0.8212,-0.8213,-0.8246,-0.8247,-0.8247,-0.8247,-0.83,-0.8301,-0.8303,0,0,0,0,0,0,0,0,0,0,0,0,0,-0.8134,-0.8099,-0.8161,-0.8185,-0.8188,-0.8211,-0.8212,-0.8213,-0.8246,-0.8247,-0.8247,-0.8247,-0.8299,-0.8301,-0.8303,-0.8307,0,0,-0.8308,-0.8309,0,0,0,0,0,0,0,0,-0.8132,-0.8136,-0.8181,-0.8183,-0.8186,-0.8223,-0.8209,-0.8245,-0.8246,-0.8224,-0.8247,-0.8247,-0.8274,-0.8278,-0.8287,-0.831,-0.8312,-0.8309,-0.831,-0.831,-0.8311,0,0,0,0,0,0,0,-0.8129,-0.8135,-0.8181,-0.8181,-0.8185,-0.8194,-0.82,-0.8216,-0.8247,-0.8226,-0.8229,-0.8234,-0.8276,-0.8285,-0.8288,-0.8313,-0.8308,-0.831,-0.8311,-0.8312,-0.8344,-0.8344,0,0,0,0,0,0,-0.8123,-0.8132,-0.818,-0.8183,-0.8159,-0.8195,-0.8201,-0.8211,-0.8247,-0.8252,-0.8234,-0.8235,-0.8282,-0.8286,-0.829,-0.8299,-0.831,-0.8312,-0.8313,-0.8344,-0.8344,-0.8344,0,0,0,0,0,0,-0.8121,-0.8127,-0.8178,-0.8158,-0.8165,-0.8196,-0.8206,-0.8212,-0.8221,-0.8252,-0.8258,-0.8237,-0.8282,-0.8288,-0.8303,-0.8301,-0.8313,-0.8315,-0.8344,-0.8344,-0.8344,-0.8315,0,0,0,0,0,0,-0.8119,-0.8126,-0.8127,-0.8158,-0.8166,-0.8188,-0.8206,-0.8212,-0.8224,-0.8226,-0.8257,-0.8263,-0.8283,-0.83,-0.8305,-0.8304,-0.8316,-0.8345,-0.8344,-0.8344,-0.8316,-0.8313,-0.8311,0,0,0,0,0,-0.8117,-0.8116,-0.8127,-0.8132,-0.8168,-0.8188,-0.8193,-0.8216,-0.8223,-0.8225,-0.8246,-0.8262,-0.8301,-0.8301,-0.8307,-0.8306,-0.8345,-0.8344,-0.8344,-0.8317,-0.8314,-0.8311,0,0,0,0,0,0,-0.8084,-0.8121,-0.8132,-0.8142,-0.8162,-0.8193,-0.8196,-0.8211,-0.8229,-0.8231,-0.826,-0.8266,-0.8279,-0.8295,-0.8295,-0.8314,-0.8325,-0.8325,-0.8303,-0.83,-0.8298,-0.8293,-0.8317,0,0,0,0,0,-0.8078,-0.809,-0.8122,-0.8128,-0.8137,-0.8165,-0.8174,-0.8191,-0.8212,-0.8221,-0.8242,-0.8263,-0.8281,-0.8291,-0.8309,-0.8319,-0.8327,-0.8322,-0.8319,-0.8317,-0.8317,-0.8325,-0.8323,-0.8342,-0.8342,-0.8342,0,0,-0.8066,-0.8087,-0.8093,-0.8122,-0.8139,-0.8152,-0.8172,-0.8184,-0.8195,-0.8223,-0.8238,-0.8256,-0.8281,-0.8294,-0.8301,-0.8307,-0.8314,-0.8316,-0.8314,-0.8316,-0.8324,-0.8323,-0.8321,-0.8342,-0.8342,-0.8342,0,0,-0.8049,-0.8067,-0.8073,-0.8091,-0.8116,-0.8135,-0.8137,-0.8167,-0.818,-0.8196,-0.8218,-0.8232,-0.826,-0.8278,-0.8291,-0.8285,-0.83,-0.829,-0.8277,-0.8284,-0.8283,-0.8282,-0.828,-0.8279,-0.829,-0.829,-0.829,0,-0.803,-0.805,-0.8075,-0.8087,-0.81,-0.8127,-0.8135,-0.815,-0.818,-0.8189,-0.8196,-0.8234,-0.8253,-0.8271,-0.827,-0.8279,-0.8283,-0.8285,-0.8281,-0.828,-0.8279,-0.8278,-0.8277,-0.8288,-0.8288,-0.8289,-0.8289,0,-0.8026,-0.804,-0.8042,-0.8071,-0.8084,-0.8094,-0.8122,-0.8133,-0.8149,-0.8168,-0.8185,-0.8209,-0.8233,-0.8239,-0.8254,-0.826,-0.8263,-0.8275,-0.8287,-0.8276,-0.8275,-0.8275,-0.8286,-0.8287,-0.8287,-0.8287,0,0,-0.7988,-0.8032,-0.8032,-0.8047,-0.8078,-0.809,-0.8102,-0.8125,-0.8134,-0.8156,-0.8167,-0.8192,-0.8204,-0.8219,-0.8237,-0.8244,-0.8239,-0.8255,-0.8257,-0.8252,-0.8248,-0.8238,-0.8237,-0.825,-0.825,-0.825,-0.8246,0,-0.7976,-0.7998,-0.8022,-0.8036,-0.805,-0.8077,-0.8089,-0.811,-0.8129,-0.8145,-0.8166,-0.8183,-0.8197,-0.8207,-0.8215,-0.8237,-0.8238,-0.8238,-0.8262,-0.8262,-0.8253,-0.8236,-0.8226,-0.822,-0.8245,-0.8245,-0.8245,0,-0.7964,-0.7984,-0.7999,-0.8031,-0.8038,-0.8047,-0.8072,-0.8086,-0.8112,-0.8126,-0.8143,-0.8163,-0.8179,-0.8191,-0.8214,-0.8214,-0.8225,-0.8238,-0.8239,-0.8241,-0.8252,-0.8238,-0.8219,-0.8218,-0.8245,-0.8245,-0.8245,0,-0.7934,-0.7965,-0.7979,-0.799,-0.8028,-0.8034,-0.8051,-0.8077,-0.809,-0.8112,-0.8121,-0.8145,-0.8158,-0.8177,-0.8203,-0.8209,-0.8224,-0.8237,-0.8237,-0.8236,-0.8237,-0.8237,-0.8219,-0.8246,-0.8246,-0.8246,-0.8246,0,-0.7918,-0.7926,-0.7966,-0.7974,-0.7985,-0.8015,-0.8025,-0.8044,-0.8068,-0.8082,-0.8108,-0.812,-0.8155,-0.8172,-0.8194,-0.8211,-0.8216,-0.8229,-0.8234,-0.8226,-0.8224,-0.8233,-0.8234,-0.8246,-0.8246,-0.8246,-0.8246,0,-0.7885,-0.7912,-0.7929,-0.7965,-0.7974,-0.7981,-0.8012,-0.8022,-0.8044,-0.8061,-0.8066,-0.81,-0.8122,-0.8151,-0.8182,-0.8197,-0.8211,-0.822,-0.8202,-0.8205,-0.8203,-0.8202,-0.819,-0.819,-0.8216,-0.8216,-0.8216,0,-0.7872,-0.7879,-0.7916,-0.7927,-0.7943,-0.796,-0.7974,-0.8004,-0.8018,-0.805,-0.8056,-0.808,-0.8101,-0.8135,-0.8163,-0.8188,-0.8197,-0.8191,-0.8201,-0.8193,-0.8197,-0.8196,-0.8198,-0.8188,-0.8188,-0.8187,-0.8187,0,-0.7846,-0.786,-0.7878,-0.7902,-0.7918,-0.7939,-0.796,-0.7968,-0.8004,-0.8018,-0.8041,-0.8057,-0.809,-0.8113,-0.8142,-0.8161,-0.818,-0.8184,-0.8185,-0.8176,-0.8166,-0.8172,-0.8195,-0.8184,-0.8184,-0.8184,-0.8185,-0.8185,-0.7823,-0.7831,-0.7859,-0.7879,-0.7899,-0.792,-0.7931,-0.7955,-0.7974,-0.8002,-0.802,-0.8043,-0.8072,-0.8112,-0.8131,-0.815,-0.8157,-0.8158,-0.8159,-0.8159,-0.8156,-0.8164,-0.8155,-0.8155,-0.8155,-0.8156,-0.8156,0,-0.7798,-0.7818,-0.7836,-0.7866,-0.7883,-0.7901,-0.7927,-0.794,-0.7959,-0.7984,-0.8004,-0.8032,-0.8056,-0.8087,-0.8114,-0.8124,-0.8133,-0.813,-0.8129,-0.8133,-0.8148,-0.8144,-0.8121,-0.8121,-0.8121,-0.8121,-0.8121,-0.8121,-0.7786,-0.7802,-0.7819,-0.7846,-0.7866,-0.7888,-0.7901,-0.7921,-0.7942,-0.7971,-0.7991,-0.8012,-0.804,-0.807,-0.8094,-0.8103,-0.8111,-0.8105,-0.8116,-0.8129,-0.8132,-0.8135,-0.8131,-0.8106,-0.8106,-0.81,-0.81,-0.81]},{"header":{"parameterUnit":"m.s-1","parameterCategory":1,"la1":30.2991,"la2":30.254,"lo1":-89.0895,"lo2":-89.0444,"dy":0.0017,"dx":0.0017,"nx":28,"ny":28,"refTime":"2024-05-23T03:00:00:Z","depth":0,"parameterNumber":3,"parameterNumberName":"V-component_of_WINDS"},"data":[0,0,0,0,0,0,0,0,0,0,0,0,0,0,0,0,0,0,0,0,0,0,0,0,0,0,0,0,0,0,0,0,0,0,0,0,0,0,0,0,0,0,0,0,0,0,0,0,0,0,0,0,0,0,0,0,0,0,2.4241,2.4241,0,2.4251,2.4252,2.4252,2.4215,2.4214,2.4213,2.4212,2.4221,2.4222,2.4223,0,0,0,0,0,0,0,0,0,0,0,0,0,2.4186,2.4188,2.424,2.4241,2.4241,2.4251,2.4252,2.4252,2.4215,2.4214,2.4212,2.4211,2.4221,2.4222,2.4224,0,0,0,0,0,0,0,0,0,0,0,0,0,2.4205,2.4188,2.424,2.4224,2.4222,2.4251,2.4252,2.4252,2.4215,2.4214,2.4212,2.4211,2.422,2.4222,2.4224,2.4269,0,0,2.423,2.423,0,0,0,0,0,0,0,0,2.4204,2.4207,2.4226,2.4225,2.4224,2.423,2.4236,2.4257,2.4216,2.4218,2.4212,2.421,2.4225,2.4227,2.4232,2.4269,2.4269,2.423,2.4231,2.4232,2.4232,0,0,0,0,0,0,0,2.4203,2.4206,2.4245,2.4226,2.4225,2.4215,2.4216,2.424,2.4231,2.4218,2.4215,2.4217,2.4224,2.423,2.4232,2.427,2.423,2.4231,2.4233,2.4233,2.4344,2.4346,0,0,0,0,0,0,2.4204,2.4205,2.4244,2.4245,2.421,2.4218,2.4219,2.423,2.423,2.4229,2.4218,2.4215,2.4228,2.423,2.4232,2.4285,2.4232,2.4234,2.4235,2.4342,2.4344,2.4346,0,0,0,0,0,0,2.4203,2.4208,2.4244,2.4225,2.4228,2.422,2.4233,2.4231,2.4237,2.4231,2.4229,2.4227,2.4227,2.423,2.426,2.4285,2.4234,2.4236,2.434,2.4343,2.4345,2.4391,0,0,0,0,0,0,2.4201,2.4207,2.4225,2.4225,2.423,2.4272,2.4235,2.4232,2.4241,2.4237,2.4238,2.4237,2.4226,2.4257,2.4262,2.4286,2.4238,2.4338,2.4341,2.4345,2.4387,2.4395,2.4401,0,0,0,0,0,2.42,2.4236,2.4226,2.4231,2.4251,2.4274,2.4276,2.4263,2.4243,2.426,2.4256,2.4237,2.4282,2.4261,2.4266,2.4291,2.4336,2.434,2.4344,2.4384,2.4393,2.4401,0,0,0,0,0,0,2.4238,2.4236,2.4224,2.4263,2.4269,2.4267,2.4288,2.4273,2.4285,2.428,2.4264,2.4264,2.4298,2.4297,2.4274,2.4335,2.4305,2.431,2.4334,2.4342,2.4349,2.4348,2.4239,0,0,0,0,0,2.4251,2.427,2.4267,2.4301,2.4305,2.4297,2.4306,2.4295,2.4301,2.4303,2.4301,2.4306,2.4322,2.4332,2.4346,2.4387,2.4387,2.4407,2.4414,2.442,2.4424,2.4446,2.4455,2.436,2.436,2.436,0,0,2.4278,2.428,2.4292,2.4309,2.4313,2.4332,2.4299,2.4321,2.4335,2.4306,2.4335,2.4334,2.4339,2.4375,2.439,2.4376,2.4451,2.4425,2.443,2.4431,2.4451,2.446,2.4468,2.4362,2.4362,2.4361,0,0,2.4337,2.434,2.4369,2.4374,2.438,2.4374,2.4381,2.4382,2.4381,2.441,2.4388,2.4405,2.4432,2.4436,2.4442,2.4504,2.4486,2.4509,2.4545,2.4567,2.4574,2.4581,2.4603,2.4611,2.4513,2.4513,2.4513,0,2.437,2.4399,2.4386,2.441,2.4418,2.4393,2.4422,2.4427,2.4437,2.4443,2.4426,2.446,2.4461,2.4498,2.4513,2.4519,2.4526,2.4508,2.4575,2.4581,2.4587,2.4608,2.4616,2.4516,2.4516,2.4515,2.4515,0,2.4439,2.4459,2.4482,2.4493,2.4504,2.453,2.452,2.4532,2.4522,2.4517,2.4547,2.4548,2.4562,2.457,2.4559,2.4606,2.4596,2.4578,2.4547,2.4599,2.4618,2.4626,2.452,2.4519,2.4518,2.4517,0,0,2.4521,2.4526,2.4534,2.4539,2.4545,2.456,2.4585,2.4599,2.461,2.4618,2.4639,2.4662,2.4645,2.4652,2.4641,2.466,2.4709,2.4639,2.4639,2.4652,2.476,2.4774,2.4784,2.4698,2.47,2.4701,2.476,0,2.4579,2.4623,2.4612,2.4656,2.4674,2.4652,2.4674,2.468,2.4677,2.4692,2.4688,2.4705,2.4681,2.4685,2.4703,2.47,2.4731,2.4695,2.4716,2.4717,2.4716,2.4794,2.4808,2.4864,2.4767,2.4769,2.477,0,2.4652,2.4664,2.471,2.4713,2.472,2.474,2.4753,2.4768,2.4773,2.477,2.4778,2.4764,2.4788,2.4759,2.4792,2.4768,2.4777,2.4776,2.4778,2.4779,2.4746,2.4797,2.4881,2.489,2.4781,2.478,2.4779,0,2.4708,2.4735,2.4766,2.4771,2.4775,2.479,2.4792,2.4796,2.4806,2.4817,2.4823,2.4836,2.4843,2.4853,2.4843,2.4823,2.4878,2.4848,2.4876,2.4876,2.4888,2.4887,2.4975,2.4894,2.4894,2.4894,2.4894,0,2.4774,2.4802,2.4791,2.481,2.4842,2.4829,2.486,2.486,2.4864,2.4882,2.4864,2.4881,2.4867,2.4883,2.4875,2.4904,2.4907,2.4905,2.4902,2.4906,2.4906,2.4911,2.4906,2.4896,2.4895,2.4895,2.4895,0,2.4841,2.4835,2.4867,2.4869,2.487,2.4893,2.4894,2.4911,2.4907,2.4931,2.4935,2.4929,2.4947,2.4938,2.4956,2.4951,2.4988,2.4981,2.4987,2.4985,2.5013,2.501,2.5106,2.5118,2.503,2.5031,2.5031,0,2.4883,2.4904,2.4909,2.492,2.4924,2.4942,2.4952,2.4941,2.4952,2.4961,2.4977,2.4993,2.5006,2.5036,2.5032,2.5046,2.5039,2.5071,2.5041,2.5044,2.5039,2.5038,2.504,2.5077,2.5078,2.5079,2.508,0,2.4958,2.4954,2.4969,2.4984,2.4997,2.5008,2.5016,2.5027,2.5016,2.5029,2.5047,2.5057,2.5077,2.5093,2.5106,2.5107,2.5092,2.509,2.5097,2.5101,2.5103,2.5102,2.5003,2.5087,2.5087,2.5086,2.5086,2.5085,2.5013,2.5032,2.5038,2.5056,2.5062,2.5071,2.5088,2.5086,2.5102,2.5117,2.511,2.5131,2.5137,2.5152,2.5156,2.5173,2.5159,2.517,2.5172,2.5175,2.5179,2.5101,2.5175,2.5175,2.5174,2.5174,2.5174,0,2.5088,2.5091,2.5108,2.5121,2.5136,2.5121,2.513,2.5143,2.5162,2.5169,2.5182,2.5204,2.522,2.5219,2.5233,2.5247,2.524,2.5251,2.525,2.525,2.519,2.5182,2.5256,2.5256,2.5256,2.5256,2.5256,2.5256,2.5128,2.5158,2.5155,2.5189,2.5191,2.5213,2.522,2.5228,2.5234,2.5259,2.5273,2.5272,2.5275,2.529,2.5304,2.5303,2.531,2.5323,2.532,2.5263,2.5255,2.5247,2.5239,2.5325,2.5325,2.5379,2.5379,2.538]}]]